Regional Weather Roundup
Issued by NWS

Home | Current Version | Previous Version | Graphics & Text | Print | Product List | Glossary On
Versions: 1 2 3 4 5 6 7 8 9 10 11 12 13 14 15 16 17 18 19 20 21 22 23 24 25 26 27 28 29 30 31 32 33 34 35 36 37 38 39 40 41 42 43 44 45 46 47 48 49 50
000
ASUS43 KMKX 242000
RWRWI

WISCONSIN REGIONAL WEATHER ROUNDUP
NATIONAL WEATHER SERVICE MILWAUKEE/SULLIVAN WI
300 PM CDT SAT JUN 24 2017

NOTE: "FAIR" INDICATES FEW OR NO CLOUDS BELOW 12,000 FEET WITH NO
SIGNIFICANT WEATHER AND/OR OBSTRUCTIONS TO VISIBILITY.

WIZ001-002-006>008-014>016-023>028-242100-
NORTHWEST WISCONSIN

CITY           SKY/WX    TMP DP  RH WIND       PRES   REMARKS
SUPERIOR ARPT  NOT AVBL
ASHLAND        CLOUDY    59  49  69 W9        29.94S
HAYWARD        LGT RAIN  61  47  59 CALM      29.95R
SIREN          CLOUDY    63  41  43 W14G24    29.98S
CUMBERLAND     CLOUDY    61  41  48 W14       29.97F
RICE LAKE      PTSUNNY   63  39  41 W13G20    29.99S
CHETEK         CLOUDY    62  42  47 W7G17     29.98R
LADYSMITH      LGT RAIN  56  47  72 W7        30.00R
EAU CLAIRE     CLOUDY    64  40  41 W15       29.97F
MENOMONIE      CLOUDY    63  43  47 W12       29.99S HAZE
NEW RICHMOND   CLOUDY    64  40  40 W12G21    30.00S
OSCEOLA        CLOUDY    64  47  53 W15G23    30.02S
$$

WIZ003>005-009-010-017-018-242100-
NORTH CENTRAL WISCONSIN

CITY           SKY/WX    TMP DP  RH WIND       PRES   REMARKS
MANITOWISH WTR DRIZZLE   53  53 100 NW10G20   29.94R
ARBOR VITAE    RAIN      55  51  88 W8G16     29.93R
WOODRUFF       RAIN      55  51  88 W8G16     29.93R
RHINELANDER    PTSUNNY   59  51  75 W9G16     29.93S
EAGLE RIVER    CLOUDY    58  47  67 W12       29.92R
LAND O LAKES   CLOUDY    56  51  81 W7        29.93S
PHILLIPS       CLOUDY    62  48  61 NW9       29.93F
TOMAHAWK       NOT AVBL
MEDFORD        MOSUNNY   62  44  52 W15G21    29.95S
MERRILL        CLOUDY    65  44  46 W15G23    29.94S
$$

WIZ029-030-035-036-043>047-242100-
CENTRAL WISCONSIN

CITY           SKY/WX    TMP DP  RH WIND       PRES   REMARKS
WAUSAU         PTSUNNY   64  43  46 W17       29.93S
MOSINEE        PTSUNNY   63  45  51 W13G20    29.96S
MARSHFIELD     PTSUNNY   62  43  49 W14G23    29.97S
STEVENS POINT  MOSUNNY   62  40  44 W14G25    29.97R
WAUPACA        MOSUNNY   70  41  34 W13G24    29.96R
WAUTOMA        MOSUNNY   67  45  45 W22G28    29.97S
WISC RAPIDS    MOSUNNY   67  42  40 W16G28    29.99R
CAMP DOUGLAS   NOT AVBL
$$

WIZ011>013-019>022-031-037>040-048>050-242100-
NORTHEAST WISCONSIN

CITY           SKY/WX    TMP DP  RH WIND       PRES   REMARKS
ANTIGO         CLOUDY    61  48  63 W13       29.93F
SHAWANO        PTSUNNY   67  47  49 W12G21    29.92S
OCONTO         CLOUDY    66  51  57 W16       29.90R
STURGEON BAY     N/A     61  55  81 NW8         N/A
GREEN BAY      CLOUDY    69  47  45 W18G26    29.92S
MANITOWOC      NOT AVBL
APPLETON       PTSUNNY   66  37  34 W17G28    29.93S
CLINTONVILLE   CLOUDY    68  43  40 W12G17    29.92F
OSHKOSH        PTSUNNY   67  45  45 W15G26    29.94S
$$

WIZ032>034-041-042-053>061-242100-
SOUTHWEST WISCONSIN

CITY           SKY/WX    TMP DP  RH WIND       PRES   REMARKS
LA CROSSE      CLOUDY    70  43  37 NW15G22   30.01S
SPARTA         PTSUNNY   66  44  45 W16G22    30.02R
VIROQUA        CLOUDY    64  45  49 W13G24    30.04S
BOSCOBEL       PTSUNNY   71  43  36 W14G24    30.04S
PRAIRIE DU CHI PTSUNNY   70  41  34 W15G23    30.05S
PLATTEVILLE    MOSUNNY   70  43  38 W17       30.06S
$$

WIZ056-057-062-063-064-067-068-242100-
SOUTH CENTRAL WISCONSIN

CITY           SKY/WX    TMP DP  RH WIND       PRES   REMARKS
REEDSBURG      PTSUNNY   66  44  45 W15G21    30.01R
BARABOO/DELLS  PTSUNNY   67  43  41 W15G24    30.00S
LONE ROCK      NOT AVBL
MINERAL POINT  PTSUNNY   68  43  40 W14G24    30.05R
MADISON        MOSUNNY   68  46  45 W12G20    29.99R
MIDDLETON      MOSUNNY   69  45  41 W15G28    30.01R
WATERTOWN      PTSUNNY   66  48  51 W15       29.98S
MONROE         MOSUNNY   68  39  34 W24       30.03S
JANESVILLE     PTSUNNY   72  45  37 W22G28    30.00R
$$

WIZ051-052-058>065-066-070>072-242100-
SOUTHEAST WISCONSIN

CITY           SKY/WX    TMP DP  RH WIND       PRES   REMARKS
MILWAUKEE      MOSUNNY   72  44  36 W16G24    29.96F
WAUKESHA       PTSUNNY   68  46  45 W17G23    29.98S
MILWAUKEE/TIMM PTSUNNY   70  37  30 W16G28    29.97F
RACINE         MOSUNNY   72  44  36 W13       29.98S
KENOSHA        MOSUNNY   72  49  44 W15       29.97F
FOND DU LAC    PTSUNNY   69  45  41 W16G23    29.95S
SHEBOYGAN      MOSUNNY   70  47  43 W18G26    29.93S
WEST BEND      MOSUNNY   68  43  40 W14G22    29.96S
JUNEAU         CLOUDY    63  46  54 W15G24    29.99R
$$

LSZ147-162-242100-
LAKE SUPERIOR

STATION/POSITION TIME  TEMP    WIND        PRES    WAVE
                       AIR SEA DIR/SP/G            HT/PER
                 (UTC) (F)     (DEG/KT/KT) (MB)    (FT/S)
W MID LAKE BUOY  1850   45 39  260/  8/  8 1012.5R   1/ 4
DEVILS ISLAND    1900   54     240/ 15/ 17 1012.8R
SAXON HARBOR     1940   60     270/  7/ 17 1012.9S
$$

LMZ867-665-643>646-242100-
LAKE MICHIGAN

STATION/POSITION TIME  TEMP    WIND        PRES    WAVE
                       AIR SEA DIR/SP/G            HT/PER
                 (UTC) (F)     (DEG/KT/KT) (MB)    (FT/S)
CHAMBERS ISLAND  1930   59     230/  5/ 10 1012.2R
S GREEN BAY BUOY 1930   65     270/ 14/ 17 1012.2R
N MID LAKE BUOY  1850   60 59  200/  8/  8 1012.0R   1
NORTHPORT PIER   1940   60     290/  6/ 10 1012.2R
KEWAUNEE LAKESHO 1930   66     270/ 13/ 17 1012.3R
SHEBOYGAN LAKESH 1900   67     270/ 19/ 24 1013.1R
PORT WASHINGTON  1930   71     290/ 12/ 18 1014.6S
ATWATER BUOY     1809   65 60  270/ 16/ 19 1014.7R
MILWAUKEE LAKESH 1930   69     290/ 15/ 20   N/A
S MID LAKE BUOY  1850   63 63  280/  6/  8 1014.8R   1/ 4
KENOSHA   LAKESH 1900   69     260/ 16/ 22 1014.9
$$

TC  - TEMPERATURE IN CELSIUS
VSB - VISIBILITY IN STATUTE MILES
WCI - WIND CHILL INDEX
HX  - HEAT INDEX





USA.gov is the U.S. government's official web portal to all federal, state and local government web resources and services.